| time (UTC) | temp F | wind direction | speed MPH | gust MPH | rain 1hr in | rain 24hr in | rain mn in | humidity % | barometer mb |
| 20260509201004 | 69 | 355 | 6.0 | 8.0 | 0.00 | 0.02 | 0.00 | 92 | 1014.6 |
| 20260509200503 | 69 | 3 | 5.0 | 6.0 | 0.00 | 0.02 | 0.00 | 92 | 1014.6 |
| 20260509194008 | 69 | 353 | 7.0 | 11.0 | 0.00 | 0.02 | 0.00 | 91 | 1014.7 |
| 20260509191008 | 70 | 326 | 5.0 | 12.0 | 0.00 | 0.02 | 0.00 | 91 | 1014.7 |
| 20260509190503 | 70 | 352 | 5.0 | 16.0 | 0.00 | 0.02 | 0.00 | 91 | 1014.6 |
| 20260509190006 | 70 | 359 | 8.0 | 20.0 | 0.00 | 0.02 | 0.00 | 90 | 1014.6 |
| 20260509185503 | 71 | 359 | 12.0 | 20.0 | 0.00 | 0.02 | 0.00 | 89 | 1014.4 |
| 20260509185002 | 73 | 360 | 12.0 | 19.0 | 0.00 | 0.02 | 0.00 | 88 | 1014.4 |
| 20260509183503 | 77 | 320 | 4.0 | 5.0 | 0.00 | 0.02 | 0.00 | 80 | 1014.1 |
| 20260509182507 | 78 | 321 | 3.0 | 7.0 | 0.00 | 0.02 | 0.00 | 80 | 1014.1 |
| 20260509181517 | 78 | 311 | 4.0 | 7.0 | 0.00 | 0.02 | 0.00 | 79 | 1014.2 |
| 20260509181008 | 78 | 287 | 3.0 | 7.0 | 0.00 | 0.02 | 0.00 | 79 | 1014.3 |
| 20260509180507 | 78 | 325 | 2.0 | 8.0 | 0.00 | 0.02 | 0.00 | 79 | 1014.3 |
| 20260509175503 | 79 | 330 | 2.0 | 6.0 | 0.00 | 0.02 | 0.00 | 77 | 1014.3 |
| 20260509175006 | 79 | 319 | 3.0 | 5.0 | 0.00 | 0.02 | 0.00 | 77 | 1014.4 |
| 20260509174506 | 78 | 272 | 3.0 | 5.0 | 0.00 | 0.02 | 0.00 | 77 | 1014.3 |
| 20260509174004 | 78 | 193 | 3.0 | 5.0 | 0.00 | 0.02 | 0.00 | 79 | 1014.5 |
| 20260509173503 | 78 | 180 | 3.0 | 8.0 | 0.00 | 0.02 | 0.00 | 79 | 1014.6 |
| 20260509171517 | 78 | 210 | 4.0 | 8.0 | 0.00 | 0.02 | 0.00 | 78 | 1014.7 |
| 20260509171006 | 78 | 198 | 4.0 | 8.0 | 0.00 | 0.02 | 0.00 | 78 | 1014.7 |
| 20260509164003 | 78 | 189 | 6.0 | 8.0 | 0.00 | 0.02 | 0.00 | 79 | 1014.5 |
| 20260509163503 | 78 | 187 | 6.0 | 7.0 | 0.00 | 0.02 | 0.00 | 79 | 1014.6 |
| 20260509163007 | 77 | 149 | 1.0 | 3.0 | 0.00 | 0.02 | 0.00 | 81 | 1014.7 |
| 20260509162502 | 76 | 290 | 1.0 | 2.0 | 0.00 | 0.02 | 0.00 | 80 | 1014.7 |
| 20260509162001 | 76 | 210 | 1.0 | 3.0 | 0.00 | 0.02 | 0.00 | 80 | 1014.8 |
| 20260509161503 | 76 | 333 | 2.0 | 5.0 | 0.00 | 0.02 | 0.00 | 81 | 1014.8 |
| 20260509161001 | 76 | 6 | 2.0 | 5.0 | 0.00 | 0.02 | 0.00 | 80 | 1014.9 |
| 20260509160504 | 76 | 60 | 3.0 | 7.0 | 0.00 | 0.02 | 0.00 | 80 | 1015.0 |
| 20260509160003 | 76 | 322 | 3.0 | 7.0 | 0.00 | 0.02 | 0.00 | 81 | 1015.0 |
| 20260509155503 | 75 | 216 | 2.0 | 4.0 | 0.00 | 0.02 | 0.00 | 81 | 1015.1 |
| 20260509155003 | 75 | 125 | 1.0 | 4.0 | 0.00 | 0.02 | 0.00 | 81 | 1014.9 |
| 20260509154507 | 75 | 290 | 2.0 | 5.0 | 0.00 | 0.02 | 0.00 | 81 | 1014.8 |
| 20260509154003 | 75 | 51 | 0.0 | 5.0 | 0.00 | 0.02 | 0.00 | 82 | 1014.8 |
| 20260509153503 | 74 | 105 | 2.0 | 6.0 | 0.00 | 0.02 | 0.00 | 83 | 1014.7 |
| 20260509153020 | 74 | 187 | 1.0 | 6.0 | 0.00 | 0.02 | 0.00 | 82 | 1014.6 |
| 20260509152504 | 74 | 148 | 2.0 | 5.0 | 0.00 | 0.02 | 0.00 | 84 | 1014.7 |
| 20260509152008 | 73 | 103 | 2.0 | 5.0 | 0.00 | 0.02 | 0.00 | 85 | 1014.7 |
| 20260509151508 | 72 | 152 | 2.0 | 4.0 | 0.00 | 0.02 | 0.00 | 85 | 1015.0 |
| 20260509151002 | 72 | 72 | 0.0 | 3.0 | 0.00 | 0.02 | 0.00 | 86 | 1015.2 |
| 20260509150503 | 72 | 51 | 2.0 | 3.0 | 0.00 | 0.02 | 0.00 | 87 | 1015.3 |
| 20260509150003 | 71 | 6 | 1.0 | 3.0 | 0.00 | 0.02 | 0.00 | 87 | 1015.3 |
| 20260509145503 | 71 | 68 | 1.0 | 4.0 | 0.00 | 0.02 | 0.00 | 87 | 1015.4 |
| 20260509145003 | 71 | 49 | 2.0 | 7.0 | 0.00 | 0.02 | 0.00 | 87 | 1015.5 |
| 20260509144512 | 71 | 17 | 4.0 | 7.0 | 0.00 | 0.02 | 0.00 | 88 | 1015.8 |
| 20260509144007 | 71 | 360 | 3.0 | 6.0 | 0.00 | 0.02 | 0.00 | 87 | 1015.9 |
| 20260509143504 | 71 | 344 | 4.0 | 6.0 | 0.00 | 0.02 | 0.00 | 87 | 1015.7 |
| 20260509143008 | 71 | 1 | 3.0 | 5.0 | 0.00 | 0.02 | 0.00 | 87 | 1015.6 |
| 20260509142508 | 71 | 1 | 3.0 | 4.0 | 0.00 | 0.02 | 0.00 | 87 | 1015.5 |
| 20260509142008 | 71 | 356 | 2.0 | 3.0 | 0.00 | 0.02 | 0.00 | 87 | 1015.5 |
| 20260509141516 | 71 | 335 | 2.0 | 3.0 | 0.00 | 0.02 | 0.00 | 87 | 1015.3 |
| 20260509141008 | 71 | 249 | 1.0 | 2.0 | 0.00 | 0.02 | 0.00 | 88 | 1015.3 |
| 20260509140503 | 71 | 302 | 1.0 | 2.0 | 0.00 | 0.02 | 0.00 | 89 | 1015.3 |
| 20260509140003 | 70 | 295 | 0.0 | 3.0 | 0.00 | 0.02 | 0.00 | 89 | 1015.3 |
| 20260509135502 | 70 | 307 | 0.0 | 3.0 | 0.00 | 0.02 | 0.00 | 89 | 1015.4 |
| 20260509135006 | 70 | 261 | 1.0 | 3.0 | 0.00 | 0.02 | 0.00 | 90 | 1015.3 |
| 20260509134503 | 70 | 355 | 2.0 | 5.0 | 0.00 | 0.02 | 0.00 | 91 | 1015.2 |
| 20260509133507 | 69 | 351 | 3.0 | 4.0 | 0.00 | 0.02 | 0.00 | 92 | 1015.2 |
| 20260509133007 | 69 | 359 | 2.0 | 3.0 | 0.00 | 0.02 | 0.00 | 92 | 1015.0 |
| 20260509132003 | 68 | 356 | 2.0 | 3.0 | 0.00 | 0.02 | 0.00 | 93 | 1015.0 |
| 20260509131512 | 68 | 360 | 1.0 | 3.0 | 0.00 | 0.02 | 0.00 | 93 | 1015.0 |
| 20260509131006 | 68 | 327 | 2.0 | 3.0 | 0.00 | 0.02 | 0.00 | 93 | 1015.1 |
| 20260509130504 | 68 | 274 | 1.0 | 3.0 | 0.00 | 0.02 | 0.00 | 93 | 1015.0 |
| 20260509125507 | 68 | 330 | 1.0 | 3.0 | 0.00 | 0.02 | 0.00 | 93 | 1014.8 |
| 20260509124505 | 68 | 356 | 0.0 | 2.0 | 0.00 | 0.02 | 0.00 | 93 | 1014.5 |
| 20260509124004 | 67 | 37 | 2.0 | 2.0 | 0.00 | 0.02 | 0.00 | 93 | 1014.3 |
| 20260509123503 | 67 | 131 | 0.0 | 2.0 | 0.00 | 0.02 | 0.00 | 93 | 1014.3 |
| 20260509123004 | 67 | 158 | 0.0 | 2.0 | 0.00 | 0.02 | 0.00 | 94 | 1014.2 |
| 20260509122504 | 67 | 297 | 0.0 | 2.0 | 0.00 | 0.02 | 0.00 | 93 | 1014.3 |
| 20260509122011 | 67 | 296 | 1.0 | 2.0 | 0.00 | 0.02 | 0.00 | 94 | 1014.4 |
| 20260509121512 | 67 | 345 | 1.0 | 2.0 | 0.00 | 0.02 | 0.00 | 93 | 1014.5 |
| 20260509121005 | 67 | 340 | 1.0 | 2.0 | 0.00 | 0.02 | 0.00 | 94 | 1014.5 |
| 20260509120507 | 67 | 359 | 1.0 | 2.0 | 0.00 | 0.02 | 0.00 | 94 | 1014.6 |
| 20260509120010 | 66 | 347 | 2.0 | 2.0 | 0.00 | 0.02 | 0.00 | 94 | 1014.5 |
| 20260509115506 | 66 | 359 | 0.0 | 2.0 | 0.00 | 0.02 | 0.00 | 93 | 1014.5 |
| 20260509115009 | 66 | 327 | 1.0 | 3.0 | 0.00 | 0.02 | 0.00 | 93 | 1014.6 |
| 20260509113503 | 66 | 289 | 1.0 | 2.0 | 0.00 | 0.02 | 0.00 | 94 | 1014.6 |
| 20260509113012 | 66 | 353 | 1.0 | 2.0 | 0.00 | 0.02 | 0.00 | 94 | 1014.4 |
| 20260509112503 | 66 | 1 | 2.0 | 3.0 | 0.00 | 0.02 | 0.00 | 94 | 1014.3 |
| 20260509112005 | 66 | 1 | 1.0 | 4.0 | 0.00 | 0.02 | 0.00 | 94 | 1014.3 |
| 20260509111507 | 66 | 359 | 2.0 | 4.0 | 0.00 | 0.02 | 0.00 | 93 | 1014.2 |
| 20260509111003 | 66 | 1 | 2.0 | 4.0 | 0.00 | 0.02 | 0.00 | 93 | 1014.2 |
| 20260509110502 | 66 | 359 | 3.0 | 4.0 | 0.00 | 0.02 | 0.00 | 93 | 1014.1 |
| 20260509110012 | 66 | 359 | 1.0 | 5.0 | 0.00 | 0.02 | 0.00 | 93 | 1014.1 |
| 20260509105505 | 65 | 1 | 3.0 | 5.0 | 0.00 | 0.02 | 0.00 | 93 | 1014.0 |
| 20260509105006 | 66 | 359 | 4.0 | 5.0 | 0.00 | 0.02 | 0.00 | 93 | 1013.9 |
| 20260509104533 | 65 | 188 | 0.0 | 2.0 | 0.00 | 0.02 | 0.00 | 93 | 1013.4 |
| 20260509104007 | 66 | 171 | 1.0 | 3.0 | 0.00 | 0.02 | 0.00 | 93 | 1013.4 |
| 20260509103507 | 66 | 315 | 3.0 | 3.0 | 0.00 | 0.02 | 0.00 | 93 | 1013.5 |
| 20260509103021 | 66 | 8 | 0.0 | 3.0 | 0.00 | 0.02 | 0.00 | 93 | 1013.2 |
| 20260509102507 | 66 | 77 | 0.0 | 4.0 | 0.00 | 0.02 | 0.00 | 93 | 1012.9 |
| 20260509102005 | 66 | 356 | 4.0 | 4.0 | 0.00 | 0.02 | 0.00 | 93 | 1013.2 |
| 20260509101509 | 66 | 115 | 0.0 | 7.0 | 0.00 | 0.02 | 0.00 | 93 | 1013.1 |
| 20260509101003 | 66 | 81 | 1.0 | 9.0 | 0.00 | 0.02 | 0.00 | 93 | 1013.1 |
| 20260509093502 | 66 | 165 | 2.0 | 5.0 | 0.00 | 0.02 | 0.00 | 93 | 1012.6 |
| 20260509093004 | 66 | 203 | 3.0 | 8.0 | 0.00 | 0.02 | 0.00 | 93 | 1012.7 |
| 20260509092505 | 66 | 196 | 4.0 | 8.0 | 0.00 | 0.02 | 0.00 | 93 | 1012.5 |
| 20260509092003 | 66 | 204 | 6.0 | 8.0 | 0.00 | 0.02 | 0.00 | 93 | 1012.4 |
| 20260509091506 | 66 | 181 | 5.0 | 7.0 | 0.00 | 0.02 | 0.00 | 93 | 1012.2 |
| 20260509091004 | 66 | 194 | 4.0 | 11.0 | 0.00 | 0.02 | 0.00 | 93 | 1012.2 |
| 20260509090506 | 66 | 208 | 4.0 | 14.0 | 0.00 | 0.02 | 0.00 | 93 | 1012.1 |
| 20260509090009 | 66 | 196 | 7.0 | 14.0 | 0.00 | 0.02 | 0.00 | 93 | 1011.9 |
| 20260509085505 | 66 | 188 | 7.0 | 11.0 | 0.00 | 0.02 | 0.00 | 93 | 1012.0 |
| 20260509085002 | 66 | 179 | 6.0 | 7.0 | 0.00 | 0.02 | 0.00 | 94 | 1012.5 |
| 20260509084503 | 66 | 207 | 3.0 | 6.0 | 0.00 | 0.02 | 0.00 | 94 | 1012.8 |
| 20260509084004 | 66 | 189 | 3.0 | 8.0 | 0.00 | 0.02 | 0.00 | 94 | 1012.8 |
| 20260509083502 | 66 | 186 | 4.0 | 12.0 | 0.00 | 0.02 | 0.00 | 94 | 1012.5 |
| 20260509083003 | 66 | 200 | 6.0 | 12.0 | 0.00 | 0.02 | 0.00 | 94 | 1012.3 |
| 20260509082503 | 66 | 179 | 7.0 | 12.0 | 0.00 | 0.02 | 0.00 | 94 | 1012.0 |
| 20260509082005 | 66 | 182 | 8.0 | 11.0 | 0.00 | 0.02 | 0.00 | 94 | 1012.2 |
| 20260509081504 | 66 | 153 | 6.0 | 8.0 | 0.00 | 0.02 | 0.00 | 94 | 1012.8 |
| 20260509081005 | 66 | 160 | 3.0 | 4.0 | 0.00 | 0.02 | 0.00 | 94 | 1013.5 |
| 20260509080504 | 66 | 311 | 1.0 | 4.0 | 0.00 | 0.02 | 0.00 | 94 | 1013.7 |
| 20260509080010 | 66 | 354 | 3.0 | 4.0 | 0.00 | 0.02 | 0.00 | 94 | 1013.8 |
| 20260509075504 | 66 | 351 | 3.0 | 4.0 | 0.00 | 0.02 | 0.00 | 94 | 1013.8 |
| 20260509075004 | 66 | 340 | 1.0 | 2.0 | 0.00 | 0.02 | 0.00 | 94 | 1013.7 |
| 20260509074512 | 66 | 309 | 2.0 | 3.0 | 0.00 | 0.02 | 0.00 | 94 | 1013.8 |
| 20260509074002 | 66 | 334 | 2.0 | 3.0 | 0.00 | 0.02 | 0.00 | 94 | 1013.8 |
| 20260509071503 | 66 | 259 | 0.0 | 2.0 | 0.00 | 0.02 | 0.00 | 93 | 1013.7 |
| 20260509071004 | 66 | 197 | 0.0 | 2.0 | 0.00 | 0.02 | 0.00 | 93 | 1013.7 |
| 20260509070504 | 66 | 197 | 0.0 | 1.0 | 0.00 | 0.02 | 0.00 | 93 | 1013.8 |
| 20260509070009 | 66 | 178 | 1.0 | 2.0 | 0.00 | 0.02 | 0.00 | 94 | 1013.9 |
| 20260509065504 | 66 | 178 | 1.0 | 2.0 | 0.00 | 0.02 | 0.00 | 93 | 1013.9 |
| 20260509065004 | 66 | 176 | 1.0 | 2.0 | 0.00 | 0.02 | 0.00 | 93 | 1014.1 |
| 20260509064508 | 66 | 215 | 1.0 | 4.0 | 0.00 | 0.02 | 0.00 | 93 | 1014.2 |
| 20260509064008 | 67 | 187 | 1.0 | 4.0 | 0.00 | 0.02 | 0.00 | 93 | 1014.2 |
| 20260509063505 | 67 | 148 | 2.0 | 4.0 | 0.00 | 0.02 | 0.00 | 93 | 1014.3 |
| 20260509063019 | 67 | 174 | 2.0 | 3.0 | 0.00 | 0.02 | 0.00 | 93 | 1014.5 |
| 20260509062502 | 67 | 161 | 2.0 | 3.0 | 0.00 | 0.02 | 0.00 | 93 | 1014.6 |
| 20260509062006 | 67 | 184 | 2.0 | 3.0 | 0.00 | 0.02 | 0.00 | 94 | 1014.6 |
| 20260509055005 | 67 | 191 | 2.0 | 7.0 | 0.00 | 0.02 | 0.00 | 93 | 1014.5 |
| 20260509054506 | 67 | 167 | 3.0 | 7.0 | 0.00 | 0.02 | 0.00 | 93 | 1014.5 |
| 20260509054005 | 67 | 170 | 3.0 | 7.0 | 0.00 | 0.02 | 0.00 | 93 | 1014.7 |
| 20260509053504 | 67 | 151 | 4.0 | 5.0 | 0.00 | 0.02 | 0.00 | 93 | 1014.7 |
| 20260509053013 | 67 | 163 | 3.0 | 7.0 | 0.00 | 0.02 | 0.00 | 93 | 1014.6 |
| 20260509052503 | 67 | 153 | 3.0 | 7.0 | 0.00 | 0.02 | 0.00 | 93 | 1014.8 |
| 20260509052007 | 67 | 175 | 4.0 | 6.0 | 0.00 | 0.02 | 0.00 | 93 | 1015.2 |
| 20260509051517 | 67 | 173 | 3.0 | 6.0 | 0.00 | 0.02 | 0.00 | 93 | 1015.2 |
| 20260509044005 | 67 | 146 | 3.0 | 5.0 | 0.01 | 0.02 | 0.00 | 93 | 1015.8 |
| 20260509041007 | 67 | 174 | 0.0 | 2.0 | 0.01 | 0.02 | 0.00 | 93 | 1016.4 |
| 20260509040506 | 67 | 174 | 0.0 | 4.0 | 0.01 | 0.02 | 0.00 | 93 | 1016.7 |
| 20260509040005 | 67 | 150 | 2.0 | 4.0 | 0.01 | 0.02 | 0.00 | 93 | 1016.8 |
| 20260509035502 | 67 | 165 | 2.0 | 3.0 | 0.01 | 0.02 | 0.02 | 93 | 1016.9 |
| 20260509034504 | 67 | 160 | 0.0 | 2.0 | 0.01 | 0.02 | 0.02 | 93 | 1017.0 |
| 20260509034002 | 67 | 160 | 0.0 | 2.0 | 0.00 | 0.01 | 0.01 | 93 | 1016.9 |
| 20260509031010 | 68 | 138 | 0.0 | 2.0 | 0.00 | 0.01 | 0.01 | 93 | 1016.7 |
| 20260509024005 | 68 | 50 | 1.0 | 2.0 | 0.01 | 0.01 | 0.01 | 92 | 1017.2 |
| 20260509021007 | 67 | 70 | 1.0 | 3.0 | 0.01 | 0.01 | 0.01 | 92 | 1017.5 |
| 20260509014512 | 68 | 319 | 2.0 | 8.0 | 0.00 | 0.00 | 0.00 | 91 | 1017.9 |
| 20260509014002 | 68 | 323 | 6.0 | 11.0 | 0.00 | 0.00 | 0.00 | 90 | 1017.3 |
| 20260509011002 | 71 | 30 | 3.0 | 9.0 | 0.00 | 0.00 | 0.00 | 84 | 1016.4 |
| 20260509004507 | 71 | 66 | 4.0 | 6.0 | 0.00 | 0.00 | 0.00 | 83 | 1015.6 |
| 20260509002007 | 71 | 101 | 1.0 | 6.0 | 0.00 | 0.00 | 0.00 | 82 | 1015.2 |
| 20260509001517 | 71 | 79 | 3.0 | 6.0 | 0.00 | 0.00 | 0.00 | 82 | 1015.1 |
| 20260509001006 | 71 | 162 | 4.0 | 6.0 | 0.00 | 0.00 | 0.00 | 82 | 1015.0 |
| 20260508234504 | 72 | 53 | 2.0 | 6.0 | 0.00 | 0.00 | 0.00 | 80 | 1014.7 |
| 20260508234003 | 72 | 58 | 3.0 | 9.0 | 0.00 | 0.00 | 0.00 | 80 | 1014.5 |
| 20260508233503 | 72 | 46 | 2.0 | 9.0 | 0.00 | 0.00 | 0.00 | 80 | 1014.6 |
| 20260508233006 | 73 | 89 | 3.0 | 6.0 | 0.00 | 0.00 | 0.00 | 80 | 1014.7 |
| 20260508232504 | 73 | 93 | 3.0 | 10.0 | 0.00 | 0.00 | 0.00 | 80 | 1014.6 |
| 20260508232005 | 73 | 103 | 5.0 | 10.0 | 0.00 | 0.00 | 0.00 | 79 | 1014.6 |
| 20260508231510 | 73 | 68 | 4.0 | 13.0 | 0.00 | 0.00 | 0.00 | 79 | 1014.7 |
| 20260508231004 | 73 | 103 | 7.0 | 13.0 | 0.00 | 0.00 | 0.00 | 78 | 1014.8 |
| 20260508230504 | 74 | 97 | 6.0 | 12.0 | 0.00 | 0.00 | 0.00 | 78 | 1014.9 |
| 20260508230012 | 74 | 72 | 7.0 | 13.0 | 0.00 | 0.00 | 0.00 | 77 | 1015.0 |
| 20260508225511 | 74 | 68 | 8.0 | 13.0 | 0.00 | 0.00 | 0.00 | 77 | 1014.9 |
| 20260508225004 | 75 | 109 | 6.0 | 13.0 | 0.00 | 0.00 | 0.00 | 76 | 1014.9 |
| 20260508224504 | 75 | 117 | 3.0 | 12.0 | 0.00 | 0.00 | 0.00 | 76 | 1014.6 |
| 20260508224003 | 75 | 43 | 5.0 | 10.0 | 0.00 | 0.00 | 0.00 | 76 | 1014.6 |
| 20260508223504 | 75 | 199 | 4.0 | 11.0 | 0.00 | 0.00 | 0.00 | 76 | 1014.6 |
| 20260508223004 | 75 | 69 | 2.0 | 12.0 | 0.00 | 0.00 | 0.00 | 76 | 1014.6 |
| 20260508222504 | 76 | 102 | 7.0 | 12.0 | 0.00 | 0.00 | 0.00 | 75 | 1014.6 |
| 20260508222004 | 76 | 91 | 5.0 | 12.0 | 0.00 | 0.00 | 0.00 | 75 | 1014.6 |
| 20260508221510 | 76 | 103 | 8.0 | 13.0 | 0.00 | 0.00 | 0.00 | 73 | 1014.5 |
| 20260508221003 | 77 | 49 | 7.0 | 13.0 | 0.00 | 0.00 | 0.00 | 72 | 1014.3 |
| 20260508220507 | 77 | 108 | 3.0 | 11.0 | 0.00 | 0.00 | 0.00 | 72 | 1014.3 |
| 20260508220015 | 77 | 104 | 6.0 | 14.0 | 0.00 | 0.00 | 0.00 | 72 | 1014.2 |
| 20260508215516 | 77 | 58 | 5.0 | 14.0 | 0.00 | 0.00 | 0.00 | 72 | 1014.3 |
| 20260508215013 | 78 | 81 | 5.0 | 13.0 | 0.00 | 0.00 | 0.00 | 71 | 1014.2 |
| 20260508214526 | 78 | 69 | 7.0 | 12.0 | 0.00 | 0.00 | 0.00 | 71 | 1014.0 |
| 20260508214004 | 78 | 96 | 8.0 | 11.0 | 0.00 | 0.00 | 0.00 | 70 | 1014.1 |
| 20260508213503 | 79 | 120 | 4.0 | 9.0 | 0.00 | 0.00 | 0.00 | 70 | 1014.0 |
| 20260508213004 | 79 | 89 | 5.0 | 9.0 | 0.00 | 0.00 | 0.00 | 70 | 1014.1 |
| 20260508212504 | 79 | 120 | 5.0 | 10.0 | 0.00 | 0.00 | 0.00 | 69 | 1014.1 |
| 20260508212004 | 79 | 56 | 4.0 | 12.0 | 0.00 | 0.00 | 0.00 | 69 | 1014.1 |
| 20260508211536 | 79 | 25 | 7.0 | 12.0 | 0.00 | 0.00 | 0.00 | 68 | 1014.2 |
| 20260508211004 | 80 | 126 | 4.0 | 11.0 | 0.00 | 0.00 | 0.00 | 67 | 1014.2 |
| 20260508210506 | 80 | 89 | 6.0 | 11.0 | 0.00 | 0.00 | 0.00 | 66 | 1014.2 |
| 20260508210009 | 81 | 84 | 7.0 | 11.0 | 0.00 | 0.00 | 0.00 | 66 | 1014.1 |
| 20260508205510 | 80 | 104 | 3.0 | 9.0 | 0.00 | 0.00 | 0.00 | 67 | 1014.0 |
| 20260508205006 | 80 | 99 | 1.0 | 7.0 | 0.00 | 0.00 | 0.00 | 68 | 1014.0 |
| 20260508204517 | 80 | 104 | 4.0 | 8.0 | 0.00 | 0.00 | 0.00 | 66 | 1013.9 |
| 20260508204005 | 80 | 108 | 4.0 | 10.0 | 0.00 | 0.00 | 0.00 | 66 | 1013.9 |
| 20260508203508 | 80 | 85 | 2.0 | 12.0 | 0.00 | 0.00 | 0.00 | 65 | 1014.0 |
| 20260508203022 | 81 | 68 | 6.0 | 12.0 | 0.00 | 0.00 | 0.00 | 65 | 1014.0 |
| 20260508201506 | 80 | 42 | 5.0 | 10.0 | 0.00 | 0.00 | 0.00 | 65 | 1014.2 |